Wind_Speed
16 15 14 13 11 9 7 5 5 6 7 9 8 8 8 6 5 5 6 8 10 11 12 13 12 12 13 13 13 12 12 13 14 15 14 14 15 16 16 16 16 14 12 12 13 12 13 11 8 6 4 4 4 5 6 10 14 16 18 18 17 15 16 16 16 15 14 14 13 13 14 14 13 12 11 10 10 9 8 7 7 8 9 9 8
17 17 14 11 9 6 5 5 6 9 11 12 10 8 7 6 7 8 9 10 11 13 14 15 15 15 15 15 15 14 14 14 14 14 16 16 15 16 17 17 19 19 15 14 15 14 13 12 10 8 6 5 4 5 7 9 12 15 18 19 19 17 16 17 17 16 15 14 13 13 13 14 14 13 12 11 9 8 7 7 8 8 8 7 6
18 18 16 11 9 6 6 8 11 14 16 15 13 11 8 7 7 9 11 12 13 13 14 16 17 18 18 17 16 16 16 16 15 15 18 19 17 17 18 18 21 22 20 17 18 17 14 13 11 9 8 6 5 6 7 9 11 14 17 19 20 19 17 17 17 17 16 15 14 13 13 14 14 14 13 11 10 9 8 8 8 8 7 5 4
19 18 18 16 13 12 14 18 20 20 19 18 16 13 12 10 10 10 11 13 15 14 15 15 16 18 20 20 19 18 18 19 19 19 19 20 20 20 20 20 22 22 21 20 20 19 16 14 12 11 9 8 7 7 8 9 11 13 15 18 20 21 20 18 17 17 17 16 15 14 14 14 14 14 14 13 11 10 9 9 8 7 6 3 3
20 19 20 20 19 19 21 25 28 26 24 21 18 16 15 15 14 13 12 13 15 16 15 15 15 16 19 22 22 22 21 22 22 22 21 21 22 22 22 22 22 22 21 21 21 20 18 15 13 12 11 9 8 8 8 9 11 13 15 17 19 21 21 20 18 18 18 17 17 16 15 14 14 14 14 13 12 11 10 10 9 7 5 2 2
20 20 21 23 25 25 27 29 30 30 29 27 23 20 19 19 19 18 17 16 16 17 17 15 15 15 17 19 21 22 23 23 23 23 24 23 23 22 22 22 21 20 21 20 21 21 19 17 15 13 12 12 10 9 9 10 11 12 14 16 18 21 22 22 20 19 19 18 18 17 16 16 15 14 14 14 13 12 11 11 10 7 5 2 1
20 21 22 23 26 27 28 28 28 28 28 28 27 25 23 22 22 22 22 20 19 19 19 17 16 15 15 17 19 20 21 23 23 23 24 24 23 22 22 21 21 22 22 20 20 21 21 19 17 15 14 14 12 11 10 11 11 12 14 16 18 20 22 23 23 21 20 20 19 19 18 17 15 15 15 15 14 13 13 12 10 8 6 3 1
24 24 24 24 26 27 27 27 26 25 24 24 26 27 27 26 26 27 26 25 23 22 21 20 18 17 16 17 19 20 21 22 23 24 25 25 24 24 23 22 22 23 25 22 21 22 22 20 20 18 16 16 15 13 12 11 12 13 14 15 17 19 21 23 24 23 22 21 21 20 20 18 17 16 15 16 15 15 14 13 11 10 7 5 3
27 28 28 28 28 29 29 29 28 26 25 24 24 25 26 26 27 29 29 28 26 25 24 23 22 20 19 19 20 22 23 24 25 26 27 27 26 27 26 23 22 24 27 25 23 23 22 21 21 20 19 18 17 16 14 12 13 14 14 15 16 18 20 22 23 24 24 23 22 21 21 20 18 17 16 16 16 16 15 14 13 11 9 7 5
30 31 30 30 31 31 32 32 31 29 27 26 25 25 25 25 25 27 28 28 28 28 28 27 25 24 23 24 24 24 25 26 27 27 28 28 27 27 26 25 23 24 28 29 26 24 23 22 23 22 21 20 19 18 17 15 14 14 15 16 16 17 19 21 23 24 25 25 24 22 22 21 20 19 18 17 17 17 16 15 14 13 11 9 7
32 32 32 32 33 33 33 33 33 32 30 29 28 27 26 26 25 26 28 28 28 29 31 31 29 28 28 27 27 27 27 28 28 29 29 29 28 27 26 26 25 25 28 31 30 27 24 23 24 24 23 22 21 20 19 18 16 15 15 16 17 17 18 19 21 23 24 26 25 24 23 22 22 20 19 18 18 17 17 17 16 14 13 11 9
32 33 33 33 34 34 34 34 34 33 32 31 30 29 28 28 27 27 28 29 29 31 32 33 33 32 31 31 30 30 30 30 29 30 30 30 29 27 26 26 27 26 28 31 32 30 27 25 25 25 24 23 22 22 22 21 19 17 16 16 17 17 18 18 19 21 23 25 26 26 25 24 23 22 21 20 18 18 18 17 17 16 15 13 10
32 32 33 34 34 34 34 35 35 34 34 33 32 32 31 31 30 30 30 30 31 32 33 34 36 36 36 34 34 33 32 31 30 30 31 31 30 29 26 26 27 27 28 30 32 33 31 29 28 27 26 24 23 24 24 23 22 20 19 17 17 17 17 18 19 19 21 23 25 27 27 26 25 24 24 22 20 19 18 18 18 17 16 14 12
33 33 34 34 35 35 35 35 35 35 34 34 33 33 33 33 33 32 32 31 31 33 34 35 36 38 39 38 37 36 35 34 33 32 32 31 31 30 29 28 28 29 29 29 32 33 32 31 30 29 27 26 25 25 25 25 24 23 22 20 19 18 18 18 18 19 20 21 23 26 27 27 27 26 26 25 23 22 20 20 19 19 18 16 14
34 34 34 35 35 35 36 36 36 36 36 35 34 34 34 34 34 34 33 32 32 33 35 35 36 38 40 42 42 40 38 37 36 36 35 34 33 33 32 31 30 31 30 30 31 32 31 30 31 31 29 28 28 26 26 27 27 26 25 24 23 22 20 19 18 18 20 21 22 24 26 28 28 28 28 27 26 24 23 21 21 21 20 18 16
36 36 35 35 35 35 36 36 37 37 37 36 36 35 35 35 35 35 35 34 33 33 34 36 36 37 39 41 44 45 44 43 42 40 39 38 37 36 35 33 33 32 32 32 32 32 31 31 33 33 32 31 30 28 28 29 30 29 28 27 27 26 24 22 20 19 19 21 22 23 24 26 28 29 29 28 27 26 24 23 22 22 21 20 18
38 37 36 36 35 35 35 36 37 37 38 38 37 36 36 36 36 36 36 36 35 34 34 35 36 37 39 40 42 45 47 48 48 46 44 42 41 39 37 35 35 35 34 34 35 34 33 35 35 34 34 34 32 31 32 33 34 34 33 31 30 29 28 26 24 21 20 20 22 23 24 25 26 28 29 29 28 27 26 25 24 23 23 22 20
41 40 39 38 37 36 35 35 35 36 37 38 38 37 37 37 37 37 38 38 37 36 35 35 35 36 38 39 41 43 45 46 48 49 48 47 45 43 40 38 38 38 37 37 37 37 37 38 38 35 34 35 34 33 34 36 39 40 39 38 35 32 31 29 28 25 23 22 22 23 24 24 25 26 28 29 29 28 27 26 25 24 24 24 22
46 45 44 42 40 39 37 36 35 35 35 37 38 38 38 38 38 38 38 39 39 39 38 37 37 37 38 38 39 41 43 44 46 47 48 49 49 48 45 42 41 41 40 40 39 39 39 40 39 38 37 37 37 37 37 39 41 42 43 43 40 37 34 32 31 29 27 25 23 23 23 24 25 25 27 28 29 29 28 27 26 26 25 25 25
50 49 48 47 45 43 42 40 38 37 36 36 37 38 39 39 39 39 39 39 40 41 41 41 40 40 40 40 40 40 41 43 44 46 47 49 50 51 50 47 45 44 43 42 42 41 40 40 40 41 41 41 40 39 40 41 42 43 43 44 43 42 39 35 34 33 31 29 27 25 23 23 24 24 26 27 29 30 29 28 28 27 26 26 27
53 52 51 51 50 48 46 44 41 40 38 37 37 38 39 39 40 40 40 40 40 41 43 43 43 43 43 43 42 42 41 41 43 44 46 48 49 51 53 52 49 47 46 44 44 43 42 42 42 43 44 45 43 41 40 42 43 44 45 45 45 44 42 39 38 36 34 33 31 28 26 24 24 24 24 26 27 29 30 30 29 28 28 28 28
56 55 53 53 53 52 49 47 45 43 40 39 38 38 39 39 40 41 41 41 41 41 43 44 44 45 45 45 44 44 43 42 42 43 45 47 49 50 53 55 55 52 49 47 46 45 45 44 45 46 47 48 47 44 42 43 44 45 46 46 45 44 42 40 39 38 37 36 35 33 31 28 26 25 25 25 26 27 29 30 30 30 29 29 29
58 57 56 56 57 55 52 49 47 45 43 41 40 39 39 39 40 41 41 42 41 42 43 44 45 45 45 45 45 45 45 44 43 42 43 45 48 49 51 54 58 58 54 51 49 48 48 47 47 48 49 50 50 47 44 45 46 46 47 46 45 45 44 41 39 39 39 38 38 37 36 34 32 30 28 27 26 27 27 29 30 31 31 30 30
61 61 61 61 60 58 56 53 50 48 45 44 43 42 41 40 40 41 42 42 42 42 43 43 44 45 44 44 44 44 44 45 44 43 43 43 46 49 51 52 57 61 60 55 53 52 51 51 50 49 49 50 50 49 47 47 48 48 49 48 46 45 46 44 41 40 40 39 39 39 40 39 37 35 33 31 29 28 28 28 29 31 32 32 31
64 65 65 64 63 61 59 57 54 51 49 46 45 43 42 41 41 42 42 43 43 44 44 44 44 44 44 44 44 44 44 44 44 44 44 44 45 47 50 52 55 59 62 62 59 56 55 56 54 51 50 50 50 50 50 50 50 50 51 51 49 47 46 45 43 42 41 40 38 39 40 42 41 39 37 35 33 31 30 29 29 30 31 32 33
66 68 67 66 64 63 62 61 59 55 52 49 47 45 43 42 41 42 42 43 44 45 45 45 45 46 45 45 45 44 44 44 44 44 44 45 45 46 49 52 54 57 61 64 65 62 61 60 58 54 51 52 52 51 52 53 53 52 53 53 52 50 48 47 46 45 44 41 39 39 40 42 43 43 40 38 36 35 33 31 31 31 31 32 33
68 70 69 67 66 65 65 65 62 59 55 52 49 47 45 43 42 41 41 42 43 44 45 46 47 47 47 47 47 46 45 45 45 45 45 45 46 47 48 50 53 56 59 63 67 69 67 64 61 60 56 54 54 53 53 54 55 55 54 54 54 53 51 49 48 48 46 43 41 40 41 43 45 45 44 42 39 38 36 34 33 32 32 32 33
71 72 71 69 68 68 69 68 66 62 57 54 51 49 47 45 43 42 42 42 43 43 45 46 47 48 48 49 49 48 48 47 47 47 47 47 47 47 49 50 52 55 58 62 67 72 74 71 67 66 63 60 57 55 54 54 55 55 54 55 54 53 52 51 50 50 47 44 42 41 41 42 43 44 45 44 42 40 38 36 35 34 33 33 34
73 73 73 71 69 70 72 71 69 65 60 56 53 50 48 46 44 43 43 43 43 44 45 46 47 48 49 50 51 50 50 49 49 49 49 49 49 48 49 50 52 55 58 61 65 71 76 76 74 72 70 66 62 58 56 55 57 57 55 54 55 53 52 51 51 50 48 45 43 42 40 40 41 43 43 44 43 41 39 38 36 35 34 34 35
74 74 74 71 70 73 75 74 71 67 63 60 56 52 49 46 44 43 43 44 44 44 45 46 47 49 50 51 52 52 52 51 51 52 52 51 51 50 50 51 52 55 58 60 64 69 73 76 79 79 76 72 69 65 60 57 58 59 58 56 56 55 54 52 52 51 49 47 45 43 42 41 41 42 41 41 41 40 39 38 36 36 35 34 35
73 75 75 70 69 75 76 75 73 70 68 66 61 56 50 46 44 43 42 43 44 45 46 47 48 50 51 53 54 54 54 54 53 54 54 53 52 52 52 52 53 55 58 60 64 69 72 73 79 84 83 78 74 70 66 62 60 61 61 60 58 58 57 55 53 53 51 49 47 45 43 42 41 41 40 40 39 38 38 37 37 36 36 35 35
73 76 74 68 69 76 78 77 76 74 72 70 65 58 52 48 46 44 42 42 43 44 46 48 49 51 53 54 55 56 56 56 56 56 56 55 54 54 53 54 55 56 57 59 63 69 72 72 75 83 87 84 78 74 71 68 65 63 62 63 61 59 59 57 56 55 53 50 48 46 44 43 42 41 40 39 38 37 36 36 36 36 36 36 36
76 78 75 70 71 78 81 81 81 78 74 72 66 59 54 51 49 46 44 42 42 43 44 47 49 51 53 55 56 57 58 59 59 59 58 57 56 56 55 56 57 57 59 60 62 68 73 73 73 79 85 87 83 79 76 73 69 66 63 63 63 61 60 59 58 57 55 51 48 46 44 43 43 42 42 41 39 38 36 35 35 35 35 35 35
78 79 79 77 76 80 84 85 84 82 76 71 65 58 54 52 49 46 44 42 42 43 44 46 48 50 52 55 56 57 58 59 61 61 60 59 58 58 58 57 57 58 60 61 62 66 72 75 74 76 82 86 87 84 81 78 74 69 65 63 64 63 61 61 59 59 57 53 49 48 46 45 45 45 44 42 40 38 36 35 35 34 33 34 34
78 79 80 78 75 79 85 87 87 85 79 72 64 58 56 54 50 47 45 43 42 43 44 46 48 50 51 53 55 57 57 58 60 61 60 60 60 60 60 59 58 59 60 62 63 66 71 74 75 76 78 83 88 89 85 82 78 73 69 66 66 65 63 62 60 60 60 56 52 50 48 48 48 47 45 43 41 39 36 35 35 34 33 32 32
79 79 79 77 75 78 83 88 90 89 83 76 67 61 60 58 54 51 49 47 45 44 45 46 47 49 51 53 54 55 56 57 59 60 60 60 61 61 61 60 59 59 60 62 63 65 69 73 75 76 77 79 85 90 88 84 83 78 73 70 68 67 66 64 62 61 61 59 55 53 51 50 49 48 47 46 43 40 37 34 34 33 32 31 31
81 80 83 83 80 80 82 89 93 91 87 80 71 66 63 60 57 55 54 52 49 47 46 47 47 48 50 53 54 55 56 57 58 60 60 61 61 61 61 61 60 59 60 61 62 64 68 72 74 75 77 78 81 88 89 87 85 83 78 74 71 69 67 66 64 63 61 59 57 55 54 53 50 48 48 48 46 43 39 35 33 33 32 31 31
85 84 87 89 85 80 82 90 94 92 89 82 74 68 64 59 56 55 55 53 51 49 48 48 49 50 52 55 58 59 59 60 60 61 61 60 60 61 60 60 59 59 59 59 61 63 66 70 73 74 75 77 79 85 89 89 88 86 82 78 75 71 68 66 66 65 63 61 59 58 57 55 52 50 49 48 47 45 42 38 35 34 33 32 31
88 87 90 92 88 81 83 91 96 95 91 83 74 68 62 56 55 55 54 53 52 51 51 51 52 53 55 58 60 61 61 61 61 62 62 60 59 59 59 58 58 58 57 58 59 62 64 68 72 74 74 75 77 82 87 89 89 88 86 82 78 74 71 67 67 68 66 63 61 59 59 56 52 51 49 48 47 46 44 42 39 37 36 34 33
89 89 91 95 91 83 84 92 97 97 93 84 75 67 59 55 55 56 55 54 54 54 54 56 56 57 57 59 61 61 60 60 61 61 60 59 58 58 57 56 56 56 56 56 58 61 63 66 70 73 74 74 76 80 85 88 90 91 89 86 82 78 74 70 68 68 67 64 61 59 58 56 53 51 50 48 47 46 45 44 43 41 39 36 35
90 91 93 97 94 86 86 92 98 99 94 85 76 65 57 55 58 59 58 57 56 56 57 59 60 60 60 61 62 61 60 60 60 59 58 57 57 57 56 54 53 53 54 55 56 59 63 65 69 73 75 75 75 78 83 86 89 92 92 89 86 81 77 73 69 68 67 65 62 58 56 55 54 52 51 50 48 46 45 44 45 44 41 38 36
91 92 95 98 95 88 87 93 99 99 93 84 74 62 56 58 61 61 61 59 57 58 58 60 63 63 63 64 63 62 61 60 59 58 56 55 54 53 53 52 50 49 51 54 55 58 62 65 69 73 75 75 75 77 81 85 88 92 93 92 88 84 79 75 72 69 67 66 64 59 56 55 54 53 52 51 49 47 45 45 45 44 42 38 36
92 94 97 99 96 90 89 94 100 99 91 81 71 63 61 65 66 65 63 61 60 60 61 62 63 63 62 62 62 62 62 60 58 56 54 53 52 51 50 50 49 47 49 52 55 57 61 64 69 73 75 76 75 75 79 84 88 91 93 93 91 87 81 77 74 71 68 67 66 63 60 56 53 52 53 52 49 47 46 46 45 43 41 38 36
91 95 99 100 97 92 91 96 101 99 91 81 73 69 69 70 69 67 66 64 63 64 65 64 63 61 59 60 59 59 59 58 56 53 51 49 49 48 47 47 47 47 47 50 53 56 59 64 68 72 75 76 75 75 77 82 86 89 92 93 93 89 82 78 76 73 70 68 67 65 63 58 52 51 52 51 49 48 47 46 44 41 40 38 37
92 98 101 101 97 93 92 98 101 98 92 83 76 74 73 72 71 70 69 68 68 68 68 67 64 61 60 60 58 57 56 54 51 49 46 45 46 46 45 44 44 45 46 48 51 54 58 63 67 72 75 76 76 76 76 79 84 88 91 92 93 90 84 80 79 77 73 69 67 66 64 60 54 51 52 52 51 49 48 46 43 40 39 38 38
94 100 103 101 98 94 95 100 102 98 92 85 79 77 75 74 74 74 74 74 73 73 71 69 67 65 64 62 59 56 53 50 47 44 42 42 43 43 42 41 41 43 45 46 49 53 57 61 66 71 74 76 77 77 75 77 82 87 90 92 93 92 87 84 82 80 75 69 66 65 65 62 57 55 54 55 53 51 49 46 44 41 39 39 39
96 103 105 102 99 96 98 103 103 99 93 86 81 78 77 76 77 77 78 78 78 77 75 73 70 68 65 63 59 56 52 47 43 40 40 40 40 40 39 39 39 41 43 45 47 51 55 59 64 69 74 76 78 77 75 75 80 86 90 92 93 92 90 87 84 80 74 68 64 64 65 63 60 58 58 58 55 52 50 48 46 43 41 40 39
100 105 106 103 99 99 102 105 104 99 93 87 82 80 79 79 80 80 80 80 79 78 76 73 70 67 64 62 59 55 51 46 40 36 37 38 37 36 36 35 36 38 40 43 45 48 53 57 62 67 72 75 77 76 74 73 78 85 89 91 91 91 91 89 84 79 74 69 66 66 66 64 61 60 61 60 57 55 53 51 48 45 43 41 39
103 107 106 103 101 102 105 106 103 98 92 86 82 81 81 82 82 82 81 81 80 77 74 71 68 65 62 59 56 53 50 44 38 33 34 35 34 33 33 32 33 34 36 39 42 45 49 54 59 65 70 73 74 75 72 72 77 84 87 90 91 91 91 90 85 80 77 73 69 67 65 64 62 62 63 62 59 57 56 53 50 47 45 42 40
107 108 106 104 103 105 107 106 102 96 90 86 83 82 83 84 84 83 81 80 78 75 71 68 65 62 59 55 53 50 47 42 35 31 32 32 31 29 29 29 30 31 32 34 36 40 45 51 56 61 66 69 71 72 71 72 77 82 86 90 92 92 92 90 87 84 80 76 71 67 65 65 63 62 62 61 59 59 58 55 51 48 46 43 41
109 108 106 106 106 107 108 106 102 96 90 86 84 84 84 83 82 81 79 76 73 71 69 66 63 60 55 52 50 47 44 39 33 29 29 30 28 26 25 25 26 27 28 29 32 36 41 45 50 55 60 64 67 69 70 72 76 81 85 91 93 93 92 91 89 85 81 77 73 69 67 67 64 60 60 60 59 60 58 54 51 49 46 44 43
Wind_Direction
292 294 299 292 285 272 254 260 285 305 325 327 328 333 338 339 322 297 276 263 256 260 254 237 226 222 219 215 211 210 219 228 228 222 214 219 233 245 249 253 259 261 252 235 233 247 253 253 261 265 246 214 200 202 207 213 212 208 202 198 197 197 194 189 187 183 178 174 167 158 151 147 144 145 146 145 141 135 131 130 128 120 111 103 90
284 287 292 281 269 262 245 256 278 291 300 302 301 301 308 312 305 298 288 279 270 266 261 250 242 234 229 227 223 217 216 219 225 228 227 230 238 248 254 259 260 261 256 235 225 234 241 243 252 263 259 238 216 208 205 207 210 208 203 199 197 198 199 196 193 191 187 183 179 170 163 157 153 153 154 155 154 147 141 138 136 129 120 108 87
274 275 276 264 254 263 272 280 287 289 292 293 291 285 278 280 288 295 294 289 282 275 267 259 252 245 239 236 233 229 224 219 223 234 235 235 238 247 254 258 258 258 258 240 224 228 232 234 241 252 259 250 234 219 213 207 206 207 205 202 199 199 201 201 199 197 195 193 190 183 176 169 163 160 161 162 163 159 151 148 144 137 129 112 78
273 264 264 260 257 269 282 290 295 295 294 292 290 283 272 266 267 276 287 289 285 279 272 265 258 251 245 243 241 237 231 223 224 232 233 231 234 243 252 259 261 258 256 243 226 225 227 229 233 241 251 252 245 231 223 215 208 207 206 204 201 200 202 204 203 201 201 201 199 194 187 180 174 170 168 169 170 168 163 160 155 149 143 122 72
281 267 261 261 262 269 278 288 296 297 296 293 289 282 274 269 266 267 272 277 279 276 271 268 265 257 246 244 244 242 236 227 226 233 237 236 237 247 253 263 267 255 248 242 228 224 225 226 229 234 242 246 247 241 229 223 214 209 207 205 204 203 204 205 205 205 204 205 204 201 195 190 184 179 177 176 176 175 174 171 168 164 162 137 70
283 275 268 266 267 272 278 287 294 296 295 292 288 284 276 271 269 268 268 268 270 269 267 266 266 263 252 243 241 240 235 230 233 241 246 245 246 253 255 260 263 247 239 238 230 227 225 225 226 229 237 240 240 241 235 229 222 215 210 207 206 206 207 207 207 207 207 208 208 206 201 197 194 190 186 183 181 182 182 181 179 179 179 172 70
290 285 279 276 277 280 285 290 292 293 293 288 283 281 277 272 270 271 270 268 265 262 262 262 262 264 257 245 239 236 232 233 241 247 249 250 250 254 254 253 251 239 234 235 233 230 226 225 224 224 231 236 235 235 235 232 227 221 215 210 208 208 208 209 210 209 209 210 211 210 207 204 203 200 196 191 187 187 189 190 190 192 196 201 210
299 296 292 289 287 287 288 289 290 291 291 286 279 276 273 270 269 269 269 267 264 258 256 257 258 257 252 245 240 239 238 239 244 248 250 253 254 257 258 252 247 238 231 231 232 230 227 226 224 222 226 232 233 231 229 230 230 226 220 215 212 210 210 211 212 212 212 212 213 213 212 211 211 209 204 198 193 191 194 197 200 202 208 216 224
295 296 296 294 293 291 290 289 289 288 288 288 284 280 276 271 267 265 264 262 261 256 253 254 254 253 248 244 241 240 242 244 246 249 253 256 256 260 261 253 247 240 230 227 226 226 228 228 224 223 223 227 231 230 226 226 229 229 226 220 216 214 213 213 214 215 216 215 215 215 216 216 217 215 211 205 199 196 198 202 206 211 216 222 228
295 295 294 293 292 291 290 289 288 288 287 287 287 286 283 277 270 265 261 258 256 254 251 250 249 250 248 245 243 241 242 244 247 251 254 257 256 256 257 251 244 238 230 226 225 224 225 227 226 225 223 224 228 230 227 223 224 228 229 226 221 218 216 216 216 217 218 218 218 217 217 217 218 218 215 211 206 201 202 206 210 216 222 226 228
299 298 296 294 292 290 288 287 286 286 286 285 285 285 284 280 274 267 262 259 255 251 249 247 246 246 247 246 244 243 242 244 247 251 253 255 255 252 251 247 241 237 230 227 226 223 220 224 229 228 225 223 224 227 228 225 223 225 229 230 228 223 220 219 219 220 220 221 221 220 218 218 217 217 216 215 212 208 206 209 213 220 226 229 229
303 300 298 296 293 291 288 286 285 284 283 283 283 283 282 281 277 270 265 261 257 253 249 246 243 243 244 244 244 245 245 246 249 251 252 252 253 252 249 244 240 237 232 227 226 223 219 220 225 227 226 226 225 225 227 227 225 225 228 231 232 230 226 223 222 222 223 223 224 224 222 220 218 216 216 217 217 215 213 213 216 220 226 230 230
311 305 301 298 294 292 289 287 285 283 282 281 281 281 280 279 277 274 270 265 261 257 253 249 245 242 242 242 243 244 246 248 249 249 249 249 250 250 246 240 237 235 233 229 225 223 222 220 219 219 221 226 229 227 226 228 228 226 227 229 233 236 233 229 226 225 226 226 226 226 226 224 221 219 218 218 219 220 220 220 220 220 224 228 229
324 316 310 304 299 295 292 289 286 284 283 281 279 278 277 276 274 272 271 268 264 261 259 255 250 246 243 242 241 241 243 247 248 248 247 246 246 245 241 237 234 232 231 230 226 224 226 227 222 219 217 220 226 228 227 228 229 229 229 230 231 235 237 234 231 229 228 229 229 228 229 228 227 225 222 222 222 223 224 224 224 221 221 224 227
333 327 320 313 307 301 296 292 289 286 283 280 277 275 274 272 271 270 268 267 265 262 261 259 256 252 248 245 242 240 240 243 246 247 246 244 242 240 239 236 232 229 228 228 226 223 228 232 230 225 222 219 220 225 230 230 230 230 230 232 232 233 235 236 234 232 230 231 232 231 230 231 230 230 228 226 225 225 225 225 224 222 218 219 222
339 334 329 322 316 308 302 295 291 287 284 281 279 276 273 271 270 269 267 266 264 262 261 261 260 258 255 251 248 244 242 242 244 245 246 244 241 239 239 237 233 230 226 224 224 223 226 232 233 230 227 225 222 223 227 228 228 231 232 233 234 234 234 235 235 235 233 231 232 232 232 232 232 232 231 230 229 227 225 224 223 222 217 214 217
342 339 335 331 325 318 310 302 296 291 287 284 281 278 275 273 272 271 269 267 264 262 261 261 261 259 258 257 255 252 249 247 245 244 244 244 242 240 240 239 235 231 226 223 223 223 224 227 230 230 229 230 230 227 225 223 221 223 227 230 232 234 234 235 235 235 233 231 230 231 232 233 233 232 232 231 230 228 226 223 222 221 218 212 211
344 342 340 336 332 326 319 310 302 295 290 285 282 279 276 274 272 271 270 269 267 263 260 260 261 260 259 258 257 257 256 254 251 247 243 241 242 241 239 238 236 232 227 223 224 224 224 226 227 227 229 230 230 229 228 226 220 216 217 221 224 228 231 234 235 234 233 231 229 228 230 232 233 233 232 231 230 229 227 225 222 220 218 213 208
345 344 343 341 338 334 328 321 313 304 295 289 284 280 277 275 273 271 269 269 268 266 263 261 260 261 261 260 259 257 257 256 255 252 247 242 240 240 239 237 235 234 230 226 225 224 223 225 226 225 226 229 228 226 226 227 225 219 217 217 217 218 223 229 233 234 232 230 228 227 227 229 231 232 233 232 230 229 227 226 223 221 219 215 209
346 344 344 343 341 338 334 329 323 316 306 297 288 283 279 276 274 272 269 268 267 266 264 262 260 259 259 260 260 259 258 257 255 254 252 247 241 238 238 238 236 234 233 230 227 225 224 224 224 224 224 228 229 225 225 226 224 222 220 220 218 214 214 219 226 230 231 230 228 226 225 226 229 232 233 233 232 231 229 227 225 223 220 218 212
346 344 343 343 342 339 336 332 327 322 315 306 295 287 281 277 274 271 269 267 266 265 264 262 260 259 258 257 258 258 258 257 256 255 254 251 246 239 236 237 238 235 233 232 230 228 226 223 222 222 223 227 229 226 225 226 224 221 220 222 221 217 213 213 217 223 227 229 229 227 226 226 228 231 233 234 234 234 232 230 228 225 222 220 216
347 344 343 342 342 340 336 333 329 324 319 312 303 293 285 279 274 271 269 267 265 264 263 261 260 259 258 257 256 255 255 254 254 255 254 253 251 245 237 235 237 237 234 232 232 230 229 226 222 221 222 225 227 225 224 225 224 221 220 222 223 222 220 217 216 219 222 226 229 229 229 229 230 232 234 235 235 235 234 234 232 229 226 223 220
347 344 342 340 340 339 337 333 329 325 321 315 308 300 292 284 277 273 270 268 266 264 262 260 259 258 257 257 255 254 253 252 251 252 252 252 252 250 244 236 234 236 235 232 231 231 230 229 226 223 222 223 226 225 222 221 222 221 220 221 223 223 223 221 220 221 222 225 228 230 231 233 234 235 235 236 236 236 235 235 234 233 230 227 224
345 344 341 339 338 338 337 334 330 326 321 316 311 305 299 291 283 277 273 270 268 266 263 260 258 257 255 255 254 253 252 252 251 251 251 251 250 250 249 243 236 235 235 234 232 231 231 231 230 228 225 223 224 224 220 218 220 222 221 220 223 224 223 222 223 224 226 228 230 231 232 234 236 238 237 237 237 237 236 235 235 234 233 231 228
344 342 340 339 338 337 337 335 332 327 323 318 312 307 302 295 288 282 276 273 270 268 266 263 260 258 256 254 254 253 252 251 251 251 251 251 250 249 248 247 242 237 234 234 233 233 232 231 231 231 228 225 223 221 219 218 220 223 223 221 223 225 224 223 225 227 228 230 231 232 233 233 235 238 239 238 237 237 237 237 236 235 235 234 232
342 341 339 338 337 336 336 335 332 329 324 319 314 309 303 297 291 284 278 273 270 268 266 264 262 260 258 256 255 254 254 253 252 252 252 251 251 250 248 246 245 241 236 233 233 233 233 233 232 232 229 227 225 222 220 220 221 223 224 223 224 225 225 225 227 229 229 228 230 233 234 233 233 234 236 237 237 238 238 237 237 237 236 235 234
340 340 338 337 337 336 335 334 332 329 325 320 316 310 305 299 293 287 280 275 270 266 264 262 260 259 258 257 256 255 254 255 255 254 253 252 251 250 250 248 245 242 239 235 232 232 233 234 233 232 229 227 227 225 222 221 221 223 224 223 223 224 224 224 227 229 228 226 229 233 234 234 233 232 233 234 236 237 238 238 238 238 238 237 236
338 338 337 336 336 336 335 334 332 330 325 321 317 312 307 301 296 291 284 277 272 267 264 261 259 257 256 255 255 255 255 255 255 255 254 253 252 250 250 250 247 244 241 237 234 232 231 232 233 232 230 228 228 227 224 221 220 221 222 221 222 222 222 223 226 227 226 226 232 235 235 235 235 234 233 234 235 236 237 239 239 239 239 238 238
336 336 336 335 335 336 336 335 334 331 327 323 318 313 308 303 298 292 286 280 275 270 266 263 260 257 255 255 255 255 255 255 255 256 256 255 254 252 250 250 249 246 243 240 237 234 231 230 231 232 231 229 228 228 225 222 221 220 219 220 221 221 221 223 225 227 225 227 231 233 235 236 236 234 233 233 234 234 236 239 241 241 241 240 239
333 334 334 334 336 338 339 338 336 333 330 326 320 314 309 303 298 292 287 282 276 272 268 265 262 259 257 256 256 256 256 256 256 256 257 257 257 256 255 253 250 248 245 242 240 238 234 230 229 231 232 229 228 229 227 224 223 221 220 220 221 223 223 224 225 226 226 227 229 231 233 234 234 233 233 232 232 233 234 237 240 241 242 241 241
331 332 333 333 336 340 340 339 337 334 332 328 323 316 310 305 299 293 288 283 278 274 270 267 264 262 260 259 259 259 259 258 258 257 257 257 258 258 258 257 254 250 247 244 242 240 237 232 228 229 231 230 228 228 228 226 224 223 221 220 222 225 225 224 225 226 226 227 229 229 230 232 232 232 233 233 232 232 232 234 237 241 242 243 242
331 332 333 332 335 340 341 339 337 335 332 330 326 319 313 308 303 297 291 286 281 277 273 270 267 265 264 263 262 262 263 262 261 260 259 259 259 259 259 259 257 254 250 246 243 243 239 234 229 227 228 230 228 226 227 227 225 223 221 221 222 225 225 224 225 225 225 227 227 228 229 230 230 231 232 233 233 233 233 233 236 240 242 243 243
331 333 334 333 333 338 341 340 338 335 333 331 327 322 316 310 305 300 295 290 285 280 276 272 270 268 267 266 265 265 265 265 265 264 263 262 262 261 260 260 259 256 253 248 244 243 242 237 232 228 227 228 228 226 225 227 226 224 222 221 222 223 224 224 225 225 224 225 226 225 227 228 230 231 232 233 233 234 235 235 236 239 241 243 243
332 334 334 333 332 336 339 339 337 335 332 330 327 323 318 312 306 302 298 294 289 284 280 276 273 270 269 269 268 267 267 267 267 267 267 266 265 264 263 261 260 257 255 251 246 243 242 239 234 230 227 226 228 227 225 226 227 225 222 221 222 223 223 223 224 225 224 224 225 224 224 227 229 231 232 232 232 233 234 235 236 237 239 241 242
332 334 334 333 332 334 336 337 335 333 331 328 326 324 322 317 311 307 303 298 293 288 284 281 277 275 273 272 271 271 270 270 269 269 269 268 267 266 265 264 261 258 255 252 248 243 242 240 236 232 228 225 226 227 226 225 226 226 223 222 222 222 223 223 223 224 224 225 224 223 223 225 228 230 231 232 232 232 233 234 236 237 238 240 241
329 332 333 332 329 330 333 334 334 332 330 327 324 322 321 318 314 310 307 302 297 292 288 284 282 280 279 277 276 275 274 273 273 272 271 271 270 269 268 266 263 259 255 251 248 244 241 240 237 233 230 226 224 226 226 225 225 226 225 223 223 223 222 223 223 224 225 226 225 223 223 225 227 229 232 233 233 232 232 234 236 237 238 239 241
327 329 331 331 329 328 331 333 333 332 330 327 323 319 317 316 312 309 307 304 300 296 293 290 288 286 285 285 283 282 280 279 278 276 275 274 273 271 269 267 264 260 255 250 247 243 240 239 237 233 231 227 224 224 226 225 224 225 225 224 223 223 223 223 224 224 225 226 224 224 224 224 226 228 231 233 234 233 232 234 237 240 241 241 241
325 326 329 331 329 327 328 331 332 331 329 327 323 320 317 315 312 309 307 305 302 300 298 296 295 293 292 290 289 287 286 284 282 281 279 277 275 273 270 267 265 260 255 250 246 243 239 237 236 233 230 228 224 223 224 224 223 223 224 224 223 223 223 223 223 224 225 225 225 225 225 225 225 227 230 232 233 233 234 235 238 242 243 243 243
323 324 327 330 328 325 326 331 332 331 329 327 324 321 318 315 313 311 308 306 305 304 303 301 299 296 294 292 291 289 288 287 285 284 282 279 277 274 271 267 264 260 255 250 245 242 238 236 236 234 230 227 225 223 223 224 223 222 223 224 223 222 222 222 222 222 223 224 226 226 225 225 226 227 229 230 231 233 235 238 240 242 244 244 243
320 322 326 328 327 323 324 329 332 330 328 326 324 321 317 315 315 313 310 308 308 307 305 303 301 298 297 295 293 292 290 289 288 286 284 282 279 275 272 268 264 259 254 249 244 241 238 235 234 233 231 227 224 222 222 223 222 222 222 223 223 222 222 222 221 221 222 222 224 225 225 226 227 227 228 229 230 232 234 239 242 243 245 245 243
316 321 325 327 325 322 323 327 330 330 328 326 323 319 316 316 316 314 311 310 309 308 307 306 305 303 302 300 297 296 294 292 289 287 285 282 279 276 272 268 263 258 253 249 243 239 236 233 232 232 231 227 223 222 221 222 221 221 221 221 222 222 221 221 222 221 221 220 222 224 225 227 227 227 228 229 229 230 233 238 241 243 244 244 243
314 319 323 325 324 322 322 326 328 329 327 326 323 320 317 317 317 313 311 311 310 310 310 310 308 307 305 303 301 300 297 295 292 290 288 284 280 275 271 267 263 256 251 247 242 238 234 232 230 230 230 227 224 221 220 220 220 220 220 220 221 221 220 220 221 222 220 219 221 223 226 226 226 226 227 228 228 229 232 236 239 241 243 242 242
313 318 321 323 323 321 321 324 327 327 327 325 322 319 317 317 315 313 312 312 312 312 312 312 310 308 306 304 303 302 299 297 295 293 289 285 280 275 270 266 262 256 249 245 242 237 233 230 229 228 228 227 224 221 219 219 219 219 219 219 220 220 220 219 221 222 220 219 220 223 225 224 224 224 226 226 226 227 231 234 237 240 241 240 240
312 317 320 321 322 320 320 323 325 326 325 323 320 317 315 315 314 312 312 313 314 315 314 313 310 308 308 306 305 303 300 299 296 293 288 283 279 274 268 264 261 255 249 244 240 236 232 229 228 227 227 226 224 221 219 217 218 218 218 218 219 220 219 218 220 221 220 218 219 221 222 223 223 223 223 224 224 226 230 232 236 239 240 238 238
311 315 318 320 320 318 319 322 324 325 324 322 319 316 315 314 314 313 314 315 316 316 316 315 312 312 312 310 308 305 302 300 296 292 286 281 277 272 267 263 259 255 249 243 239 236 233 229 227 227 226 226 224 222 219 216 216 216 217 216 218 218 217 217 219 220 220 218 217 219 221 222 222 222 222 223 223 226 229 232 234 237 240 239 238
310 314 317 319 319 317 318 321 323 323 323 321 319 317 315 315 315 315 316 317 317 317 318 317 315 315 315 313 311 308 305 301 296 291 285 280 275 271 266 261 256 252 248 242 238 235 233 229 227 226 226 225 223 221 219 215 213 214 215 215 216 216 215 215 217 219 219 218 217 218 220 221 222 222 222 223 223 225 228 230 233 237 240 240 238
309 313 316 318 318 317 318 320 322 323 322 320 318 317 315 315 315 316 317 317 318 318 318 317 316 316 316 314 312 309 306 302 296 290 285 280 275 270 265 259 254 250 246 242 237 234 232 229 226 225 224 224 222 220 218 214 212 212 213 213 214 214 214 214 216 218 219 218 218 219 220 220 220 222 223 224 224 224 226 228 232 237 239 239 237
309 312 315 317 317 317 318 320 321 322 321 318 317 316 315 315 315 316 316 316 316 316 316 315 315 315 315 313 311 309 306 301 296 291 286 280 275 270 264 258 252 248 245 241 237 233 231 228 226 224 223 223 222 220 217 213 211 211 212 212 212 213 213 214 215 217 218 218 217 219 220 220 220 221 224 225 224 224 226 228 231 235 237 237 236
309 313 315 316 316 317 318 319 320 320 319 317 316 316 316 315 315 315 315 315 315 314 314 313 313 314 313 311 309 307 304 300 295 291 285 280 274 269 263 256 251 247 244 241 238 234 231 228 226 224 223 222 221 219 216 213 211 210 210 210 211 211 212 212 214 215 216 217 217 218 219 220 220 222 224 225 224 224 226 228 232 235 236 236 235
310 313 314 315 316 317 317 318 319 319 318 317 316 316 316 315 315 314 315 315 315 314 313 312 313 313 312 310 307 304 301 298 294 289 284 278 272 265 258 254 250 247 245 243 240 237 233 230 227 226 224 222 221 219 215 212 211 209 209 209 210 210 210 211 212 214 214 216 217 217 218 220 220 221 224 224 224 224 225 228 232 234 234 233 233
311 313 314 315 316 316 317 317 318 318 317 317 316 316 316 316 315 315 315 315 315 314 312 311 312 312 310 308 304 301 298 295 291 286 281 274 266 258 253 252 251 249 247 244 242 240 237 233 230 228 225 223 221 219 215 212 210 209 208 208 209 209 209 210 212 213 214 215 216 216 217 219 220 220 221 223 223 223 225 227 230 231 231 231 231
Height
10960 10959 10957 10956 10956 10955 10955 10954 10953 10952 10951 10951 10951 10950 10949 10947 10947 10947 10946 10946 10946 10946 10946 10946 10945 10945 10945 10944 10944 10944 10945 10946 10946 10945 10945 10945 10945 10946 10946 10946 10946 10946 10945 10945 10946 10948 10949 10949 10948 10948 10947 10947 10947 10947 10948 10949 10950 10951 10953 10954 10955 10956 10956 10957 10957 10958 10958 10958 10959 10958 10958 10959 10959 10960 10961 10962 10962 10962 10963 10963 10964 10964 10964 10964 10964
10960 10958 10957 10956 10955 10955 10954 10953 10952 10951 10951 10951 10950 10949 10948 10947 10946 10946 10945 10945 10944 10944 10944 10944 10944 10944 10943 10943 10943 10943 10943 10944 10944 10943 10943 10944 10944 10944 10944 10945 10944 10944 10944 10944 10944 10946 10947 10948 10948 10947 10947 10947 10947 10947 10947 10947 10949 10950 10951 10952 10954 10955 10956 10957 10957 10958 10958 10959 10959 10959 10959 10959 10959 10960 10961 10962 10962 10963 10963 10964 10964 10964 10964 10965 10965
10959 10958 10957 10956 10955 10954 10953 10952 10951 10950 10950 10950 10949 10948 10947 10946 10945 10944 10944 10943 10942 10942 10942 10942 10942 10942 10942 10942 10942 10942 10942 10942 10942 10942 10942 10943 10943 10943 10943 10943 10943 10943 10943 10943 10943 10944 10945 10946 10946 10946 10947 10947 10947 10947 10947 10947 10947 10948 10950 10951 10952 10954 10955 10956 10957 10957 10958 10959 10959 10959 10959 10959 10960 10960 10961 10961 10962 10962 10963 10963 10964 10964 10965 10965 10965
10958 10957 10956 10955 10954 10953 10952 10951 10949 10949 10948 10948 10948 10947 10946 10945 10944 10943 10942 10941 10940 10940 10940 10940 10940 10940 10940 10940 10940 10940 10940 10940 10940 10940 10941 10941 10941 10941 10941 10941 10941 10941 10942 10942 10942 10943 10943 10944 10945 10945 10946 10946 10947 10947 10947 10947 10947 10947 10949 10950 10951 10952 10954 10955 10956 10957 10957 10958 10959 10959 10960 10960 10960 10960 10960 10961 10961 10962 10962 10963 10964 10964 10964 10965 10965
10956 10956 10955 10954 10952 10951 10950 10948 10947 10946 10945 10945 10945 10945 10944 10943 10942 10942 10941 10940 10939 10938 10937 10937 10937 10937 10937 10937 10938 10938 10938 10938 10938 10938 10939 10939 10938 10938 10938 10938 10938 10939 10940 10941 10941 10941 10942 10942 10943 10944 10944 10945 10946 10946 10947 10947 10947 10947 10947 10949 10950 10951 10952 10954 10955 10956 10957 10957 10958 10959 10960 10960 10960 10960 10960 10960 10961 10961 10962 10962 10963 10963 10964 10964 10965
10954 10953 10953 10952 10950 10949 10947 10946 10944 10942 10942 10941 10941 10941 10941 10940 10940 10940 10939 10939 10938 10936 10935 10935 10935 10935 10935 10935 10935 10935 10935 10936 10936 10936 10936 10936 10937 10936 10936 10936 10937 10937 10938 10939 10939 10939 10940 10940 10941 10942 10943 10944 10945 10945 10946 10946 10946 10946 10947 10947 10949 10950 10951 10952 10954 10955 10956 10956 10957 10959 10959 10960 10960 10960 10960 10960 10960 10961 10961 10962 10962 10963 10963 10964 10964
10952 10951 10950 10949 10948 10946 10944 10943 10941 10940 10939 10938 10937 10937 10938 10938 10937 10937 10937 10937 10936 10935 10933 10932 10932 10932 10932 10933 10933 10933 10933 10934 10934 10933 10933 10933 10934 10935 10935 10935 10935 10935 10936 10936 10937 10937 10938 10938 10939 10940 10941 10942 10943 10944 10945 10945 10946 10946 10946 10947 10947 10948 10950 10951 10952 10953 10954 10955 10956 10958 10959 10959 10959 10959 10959 10960 10960 10960 10961 10961 10962 10962 10963 10963 10964
10949 10948 10947 10946 10945 10943 10942 10941 10939 10938 10937 10935 10934 10934 10934 10934 10934 10934 10934 10934 10934 10933 10931 10930 10930 10930 10929 10930 10930 10931 10931 10931 10931 10931 10930 10931 10931 10932 10932 10932 10932 10932 10933 10933 10934 10935 10935 10936 10936 10937 10938 10940 10941 10942 10943 10944 10944 10945 10945 10946 10946 10947 10948 10950 10951 10952 10953 10954 10955 10956 10958 10958 10959 10959 10959 10959 10959 10960 10960 10960 10961 10961 10962 10963 10963
10946 10945 10944 10942 10941 10940 10939 10938 10937 10936 10934 10933 10932 10931 10930 10930 10930 10930 10930 10930 10930 10929 10929 10928 10927 10927 10927 10927 10927 10927 10928 10928 10928 10928 10928 10928 10928 10928 10928 10929 10928 10928 10929 10930 10931 10932 10933 10933 10934 10934 10936 10937 10938 10940 10940 10941 10942 10944 10944 10945 10945 10946 10947 10948 10949 10951 10952 10953 10954 10955 10956 10957 10958 10958 10958 10959 10959 10959 10959 10959 10960 10960 10961 10962 10962
10942 10941 10940 10939 10937 10936 10935 10934 10933 10932 10931 10929 10928 10927 10927 10926 10926 10926 10926 10926 10926 10925 10925 10925 10925 10924 10924 10923 10923 10924 10924 10924 10924 10925 10925 10925 10925 10925 10925 10925 10925 10925 10925 10926 10927 10929 10930 10930 10931 10931 10933 10934 10936 10937 10938 10939 10940 10941 10943 10943 10944 10945 10945 10946 10948 10949 10951 10952 10953 10954 10955 10956 10957 10958 10958 10958 10958 10958 10958 10959 10959 10959 10960 10961 10961
10938 10937 10935 10934 10933 10932 10931 10929 10928 10927 10926 10925 10924 10924 10923 10923 10922 10922 10921 10921 10921 10921 10920 10920 10921 10921 10921 10921 10920 10920 10920 10920 10921 10921 10922 10922 10922 10922 10922 10922 10922 10922 10922 10923 10924 10925 10927 10927 10928 10929 10930 10931 10933 10935 10936 10937 10938 10939 10940 10942 10943 10943 10944 10945 10946 10947 10949 10951 10952 10953 10954 10955 10956 10956 10957 10957 10957 10957 10958 10958 10958 10958 10959 10959 10960
10935 10933 10932 10930 10929 10928 10926 10925 10924 10923 10922 10921 10920 10919 10919 10919 10918 10918 10917 10917 10917 10916 10916 10916 10917 10917 10917 10917 10917 10917 10917 10917 10918 10918 10918 10918 10918 10918 10918 10918 10918 10919 10920 10920 10921 10922 10923 10924 10925 10926 10928 10929 10930 10932 10934 10935 10936 10937 10938 10939 10941 10942 10942 10943 10944 10945 10947 10949 10951 10952 10953 10953 10954 10955 10955 10956 10956 10957 10957 10957 10957 10958 10958 10958 10959
10932 10930 10928 10926 10925 10924 10922 10921 10920 10919 10918 10917 10916 10915 10914 10914 10914 10913 10913 10913 10913 10912 10912 10912 10912 10912 10912 10913 10913 10913 10913 10914 10914 10914 10914 10914 10914 10915 10915 10915 10914 10915 10917 10917 10918 10918 10919 10920 10921 10923 10924 10926 10927 10929 10931 10933 10934 10934 10935 10937 10938 10939 10940 10941 10942 10943 10945 10947 10948 10950 10951 10952 10953 10953 10954 10954 10955 10955 10956 10956 10956 10957 10957 10957 10958
10930 10927 10925 10923 10921 10919 10918 10916 10915 10914 10913 10913 10912 10911 10910 10909 10909 10908 10908 10908 10909 10908 10907 10907 10907 10907 10908 10908 10909 10909 10909 10909 10909 10910 10910 10910 10910 10910 10911 10911 10911 10912 10913 10914 10915 10915 10915 10917 10918 10920 10921 10922 10924 10926 10929 10930 10931 10933 10934 10934 10935 10936 10937 10939 10940 10941 10942 10944 10946 10948 10949 10951 10951 10952 10952 10953 10953 10953 10954 10954 10955 10955 10956 10956 10957
10928 10925 10922 10920 10917 10915 10914 10912 10911 10909 10909 10908 10907 10906 10905 10904 10904 10903 10903 10903 10904 10903 10902 10902 10902 10902 10902 10903 10903 10904 10905 10905 10904 10905 10906 10906 10906 10906 10906 10907 10907 10908 10910 10911 10912 10913 10914 10915 10916 10917 10918 10919 10921 10923 10926 10929 10930 10931 10932 10932 10933 10933 10934 10935 10937 10938 10939 10941 10943 10945 10947 10948 10950 10950 10951 10951 10951 10952 10952 10953 10953 10954 10955 10955 10956
10926 10923 10920 10917 10915 10912 10910 10908 10906 10905 10903 10903 10902 10901 10900 10899 10898 10898 10897 10897 10898 10898 10897 10896 10896 10897 10896 10897 10897 10898 10899 10899 10899 10900 10901 10901 10901 10901 10902 10903 10904 10905 10907 10907 10907 10909 10911 10912 10912 10914 10915 10916 10917 10919 10921 10923 10926 10928 10929 10929 10930 10930 10931 10932 10933 10935 10936 10938 10940 10942 10944 10946 10947 10948 10949 10950 10950 10950 10951 10951 10952 10952 10953 10954 10954
10924 10921 10918 10915 10912 10909 10906 10904 10902 10900 10899 10897 10896 10895 10894 10893 10893 10892 10891 10891 10892 10893 10892 10891 10890 10891 10890 10890 10891 10891 10892 10893 10894 10895 10896 10896 10897 10898 10898 10899 10900 10901 10902 10902 10903 10905 10906 10907 10908 10909 10911 10913 10915 10916 10915 10914 10916 10919 10922 10924 10925 10926 10927 10928 10930 10931 10932 10934 10936 10938 10940 10942 10944 10946 10947 10948 10949 10949 10949 10950 10950 10951 10951 10952 10953
10921 10918 10915 10912 10910 10907 10904 10901 10898 10896 10894 10892 10891 10890 10889 10888 10887 10886 10885 10885 10885 10886 10887 10886 10885 10885 10884 10884 10884 10884 10885 10886 10887 10888 10890 10891 10892 10893 10894 10894 10895 10896 10896 10897 10898 10900 10901 10902 10903 10905 10906 10908 10910 10911 10912 10910 10908 10909 10911 10914 10916 10919 10922 10924 10925 10927 10929 10930 10932 10934 10937 10939 10941 10943 10944 10945 10946 10947 10948 10948 10949 10949 10950 10951 10951
10916 10914 10911 10908 10905 10903 10900 10897 10895 10893 10890 10888 10886 10885 10883 10882 10881 10880 10879 10879 10878 10879 10880 10880 10880 10879 10878 10878 10878 10878 10878 10879 10879 10880 10882 10884 10886 10888 10889 10889 10890 10890 10891 10892 10893 10894 10895 10897 10898 10900 10902 10902 10903 10905 10907 10906 10906 10907 10907 10907 10908 10910 10913 10917 10920 10923 10925 10927 10929 10930 10933 10935 10937 10939 10941 10942 10944 10945 10945 10946 10947 10948 10948 10949 10950
10912 10909 10906 10903 10900 10897 10894 10892 10890 10888 10886 10884 10881 10879 10878 10876 10875 10874 10873 10872 10872 10872 10872 10873 10873 10873 10872 10872 10872 10872 10872 10873 10873 10873 10874 10875 10878 10881 10882 10883 10884 10884 10885 10886 10887 10888 10889 10891 10892 10894 10896 10896 10897 10900 10901 10901 10902 10904 10905 10904 10903 10902 10903 10907 10912 10917 10920 10923 10925 10927 10929 10931 10934 10936 10938 10939 10941 10942 10943 10944 10945 10946 10947 10948 10949
10908 10905 10901 10898 10895 10892 10889 10886 10884 10882 10881 10879 10876 10874 10872 10871 10869 10868 10867 10866 10866 10865 10865 10865 10865 10866 10866 10866 10866 10866 10866 10866 10866 10866 10867 10867 10868 10872 10875 10877 10877 10878 10880 10880 10882 10883 10883 10884 10886 10887 10889 10889 10891 10894 10896 10896 10897 10899 10900 10901 10900 10899 10899 10900 10903 10909 10914 10917 10921 10923 10926 10928 10930 10932 10934 10936 10938 10939 10941 10942 10943 10944 10945 10946 10947
10904 10901 10898 10895 10892 10888 10885 10881 10879 10877 10875 10873 10871 10869 10867 10865 10864 10862 10861 10860 10859 10859 10858 10857 10857 10858 10858 10858 10859 10859 10860 10860 10860 10860 10860 10860 10860 10862 10866 10870 10870 10871 10873 10875 10876 10877 10878 10878 10879 10880 10882 10883 10885 10888 10890 10891 10892 10894 10895 10896 10897 10898 10899 10899 10900 10902 10906 10911 10915 10919 10922 10924 10927 10929 10931 10933 10935 10936 10938 10939 10940 10942 10943 10944 10945
10901 10898 10895 10892 10888 10885 10881 10877 10874 10871 10869 10867 10865 10863 10861 10860 10858 10856 10855 10854 10853 10852 10851 10850 10850 10850 10850 10850 10851 10852 10853 10853 10853 10853 10854 10854 10853 10854 10857 10861 10862 10863 10865 10869 10870 10871 10872 10872 10873 10874 10875 10877 10879 10882 10884 10886 10887 10889 10890 10892 10893 10895 10896 10898 10899 10900 10902 10905 10909 10913 10917 10920 10922 10925 10927 10929 10931 10933 10934 10936 10937 10939 10940 10942 10943
10897 10894 10891 10888 10884 10880 10876 10873 10869 10866 10863 10860 10858 10856 10854 10852 10851 10850 10848 10847 10846 10845 10844 10843 10842 10842 10843 10843 10843 10844 10844 10844 10845 10846 10846 10847 10847 10847 10848 10851 10853 10854 10858 10862 10863 10864 10865 10865 10866 10868 10870 10871 10873 10876 10878 10880 10882 10884 10886 10887 10889 10891 10893 10894 10896 10898 10900 10902 10905 10908 10912 10915 10918 10921 10923 10925 10927 10929 10931 10933 10934 10935 10937 10939 10940
10893 10890 10887 10883 10879 10874 10870 10867 10863 10860 10857 10854 10851 10849 10847 10845 10844 10842 10841 10840 10839 10837 10836 10836 10835 10834 10834 10835 10835 10835 10836 10836 10837 10837 10838 10839 10839 10839 10840 10841 10844 10846 10850 10854 10855 10857 10857 10857 10859 10862 10865 10866 10867 10869 10872 10874 10876 10878 10881 10883 10884 10886 10889 10891 10893 10895 10897 10899 10902 10904 10907 10910 10913 10916 10919 10921 10923 10925 10927 10929 10931 10932 10934 10935 10937
10889 10886 10882 10878 10874 10870 10865 10861 10857 10854 10850 10847 10844 10842 10840 10838 10837 10835 10834 10833 10832 10830 10829 10828 10827 10827 10826 10826 10826 10827 10827 10828 10828 10829 10830 10830 10830 10831 10831 10832 10834 10836 10840 10844 10847 10848 10848 10849 10853 10857 10859 10860 10860 10862 10865 10868 10871 10873 10876 10878 10880 10882 10885 10888 10890 10891 10893 10895 10897 10900 10902 10905 10908 10910 10913 10916 10918 10921 10923 10925 10927 10928 10930 10932 10934
10885 10881 10878 10874 10870 10865 10860 10856 10852 10848 10844 10840 10837 10834 10832 10830 10828 10827 10826 10825 10824 10823 10822 10821 10820 10819 10818 10817 10817 10818 10818 10819 10819 10820 10820 10821 10822 10823 10823 10824 10825 10826 10829 10833 10836 10838 10838 10841 10846 10849 10851 10852 10853 10856 10859 10861 10865 10868 10870 10873 10875 10878 10881 10884 10885 10887 10888 10890 10892 10895 10898 10900 10902 10905 10908 10911 10913 10916 10918 10921 10923 10925 10926 10928 10930
10880 10876 10873 10869 10864 10860 10855 10850 10845 10841 10837 10833 10830 10827 10824 10821 10820 10819 10817 10817 10816 10815 10814 10813 10812 10811 10810 10809 10809 10809 10809 10810 10810 10811 10811 10812 10812 10813 10814 10815 10816 10817 10819 10822 10824 10826 10827 10832 10836 10839 10841 10844 10846 10849 10853 10856 10859 10861 10865 10868 10870 10873 10877 10879 10881 10883 10885 10886 10889 10892 10894 10896 10899 10901 10904 10906 10909 10911 10914 10916 10918 10920 10922 10924 10926
10875 10871 10867 10863 10858 10853 10848 10843 10838 10833 10829 10826 10822 10819 10816 10814 10812 10810 10808 10807 10806 10806 10805 10804 10803 10803 10802 10801 10800 10800 10800 10801 10801 10802 10802 10802 10802 10803 10805 10806 10808 10808 10809 10811 10813 10813 10815 10821 10826 10827 10831 10836 10839 10842 10846 10850 10852 10855 10858 10861 10864 10867 10871 10874 10876 10878 10881 10883 10885 10888 10891 10893 10895 10897 10900 10902 10904 10906 10909 10912 10914 10916 10918 10920 10922
10870 10866 10861 10856 10852 10846 10841 10836 10831 10826 10822 10818 10815 10811 10809 10806 10804 10802 10800 10798 10797 10797 10797 10796 10795 10794 10794 10793 10792 10792 10792 10792 10792 10792 10792 10792 10792 10793 10795 10797 10799 10799 10800 10801 10802 10800 10803 10810 10814 10816 10820 10826 10831 10835 10840 10843 10845 10848 10852 10854 10857 10861 10864 10868 10871 10874 10877 10879 10880 10883 10886 10888 10891 10893 10895 10897 10899 10901 10904 10907 10909 10911 10913 10915 10917
10866 10861 10856 10851 10846 10841 10835 10830 10825 10820 10816 10812 10807 10803 10800 10798 10796 10794 10792 10790 10789 10788 10788 10787 10786 10785 10784 10784 10783 10783 10782 10782 10782 10782 10782 10782 10782 10783 10784 10786 10788 10790 10791 10793 10792 10788 10791 10799 10803 10805 10809 10815 10821 10827 10832 10835 10837 10840 10844 10848 10850 10854 10858 10862 10866 10869 10872 10874 10876 10879 10881 10884 10886 10889 10891 10893 10895 10897 10899 10902 10905 10907 10909 10911 10912
10861 10857 10852 10846 10841 10835 10830 10825 10820 10815 10810 10805 10800 10795 10791 10789 10787 10785 10784 10783 10781 10780 10780 10778 10777 10776 10775 10774 10774 10773 10772 10771 10771 10771 10771 10771 10771 10772 10774 10774 10776 10779 10781 10784 10783 10778 10779 10787 10791 10793 10798 10803 10811 10818 10822 10825 10828 10832 10837 10841 10843 10847 10851 10856 10860 10863 10866 10869 10871 10874 10877 10879 10882 10884 10887 10889 10891 10892 10894 10897 10900 10902 10904 10906 10908
10852 10848 10843 10838 10833 10828 10822 10818 10813 10808 10803 10798 10793 10789 10785 10782 10779 10778 10776 10775 10774 10773 10772 10770 10769 10767 10766 10765 10764 10764 10763 10762 10760 10760 10759 10760 10760 10761 10762 10763 10764 10767 10769 10772 10774 10770 10767 10773 10780 10782 10786 10792 10800 10807 10812 10815 10819 10823 10829 10833 10837 10841 10845 10849 10853 10857 10861 10864 10867 10870 10872 10875 10877 10879 10882 10884 10886 10888 10890 10892 10895 10897 10900 10902 10904
10843 10838 10832 10827 10822 10817 10813 10810 10807 10803 10798 10793 10789 10785 10781 10776 10773 10771 10769 10768 10767 10765 10764 10762 10761 10760 10758 10756 10755 10754 10754 10753 10751 10749 10749 10748 10749 10749 10750 10752 10753 10755 10757 10759 10763 10762 10757 10760 10767 10771 10774 10782 10789 10794 10800 10806 10810 10815 10821 10826 10830 10834 10838 10842 10847 10851 10855 10859 10862 10865 10867 10870 10872 10874 10877 10879 10882 10884 10886 10888 10890 10893 10895 10897 10899
10838 10832 10826 10821 10816 10811 10808 10805 10802 10798 10793 10788 10784 10780 10776 10771 10767 10765 10763 10762 10760 10758 10756 10754 10752 10751 10750 10748 10747 10746 10745 10743 10741 10739 10738 10737 10737 10737 10737 10739 10741 10742 10744 10746 10749 10751 10748 10747 10754 10759 10763 10771 10778 10781 10789 10797 10801 10807 10814 10818 10821 10826 10830 10835 10839 10844 10849 10853 10856 10860 10862 10865 10867 10869 10872 10874 10877 10879 10882 10884 10886 10888 10890 10892 10894
10834 10829 10825 10821 10816 10810 10805 10800 10795 10791 10786 10781 10776 10774 10770 10765 10762 10759 10757 10755 10754 10751 10749 10747 10745 10743 10742 10740 10738 10737 10735 10733 10732 10730 10728 10726 10725 10725 10725 10726 10728 10729 10730 10732 10735 10738 10737 10736 10740 10748 10753 10760 10767 10770 10777 10786 10792 10798 10805 10809 10812 10818 10822 10827 10832 10837 10841 10846 10850 10854 10857 10859 10862 10865 10867 10870 10872 10875 10877 10879 10882 10884 10886 10887 10889
10830 10826 10821 10816 10811 10805 10799 10795 10789 10784 10779 10774 10769 10766 10763 10759 10755 10752 10749 10747 10745 10744 10742 10740 10738 10737 10734 10731 10728 10726 10724 10722 10720 10718 10716 10714 10713 10712 10712 10712 10713 10714 10715 10718 10721 10724 10725 10724 10727 10735 10741 10748 10756 10759 10765 10774 10782 10788 10796 10801 10805 10810 10814 10820 10825 10830 10834 10839 10844 10848 10850 10853 10856 10859 10862 10865 10867 10870 10872 10875 10877 10879 10881 10883 10885
10823 10818 10813 10808 10803 10798 10794 10790 10785 10779 10773 10768 10762 10757 10754 10751 10747 10744 10741 10739 10737 10736 10735 10733 10731 10729 10726 10722 10718 10714 10712 10710 10708 10705 10703 10702 10701 10699 10698 10699 10699 10699 10701 10704 10707 10710 10713 10713 10714 10721 10730 10737 10744 10749 10754 10762 10771 10779 10786 10792 10797 10802 10807 10813 10818 10822 10827 10833 10837 10841 10844 10847 10850 10853 10856 10859 10863 10865 10868 10870 10873 10875 10877 10878 10880
10816 10812 10807 10802 10797 10793 10788 10783 10778 10772 10766 10761 10756 10750 10745 10742 10740 10737 10734 10731 10729 10728 10727 10725 10723 10720 10716 10712 10707 10703 10700 10697 10695 10692 10689 10689 10687 10685 10685 10685 10685 10686 10687 10690 10694 10697 10700 10701 10702 10708 10717 10725 10733 10738 10743 10750 10760 10768 10776 10782 10789 10795 10799 10804 10809 10813 10818 10825 10830 10834 10838 10841 10845 10848 10851 10855 10858 10861 10863 10866 10868 10870 10872 10873 10875
10811 10807 10802 10797 10791 10787 10781 10775 10770 10764 10758 10753 10749 10744 10739 10735 10733 10730 10727 10724 10722 10720 10718 10715 10712 10709 10706 10701 10696 10692 10689 10686 10682 10679 10676 10675 10673 10671 10671 10672 10672 10672 10674 10677 10680 10684 10687 10690 10692 10696 10704 10713 10721 10727 10732 10739 10749 10757 10765 10771 10778 10785 10790 10795 10800 10805 10811 10818 10824 10828 10832 10836 10840 10843 10846 10849 10852 10855 10858 10860 10863 10865 10867 10868 10870
10805 10801 10795 10789 10784 10779 10774 10768 10764 10758 10751 10744 10740 10736 10733 10729 10726 10722 10719 10717 10715 10713 10709 10705 10700 10696 10692 10688 10683 10680 10678 10674 10670 10667 10665 10662 10660 10657 10657 10658 10659 10660 10661 10664 10668 10671 10675 10679 10681 10684 10690 10699 10709 10716 10721 10729 10737 10745 10753 10760 10768 10776 10782 10788 10794 10799 10805 10812 10818 10823 10827 10830 10834 10837 10840 10844 10846 10850 10853 10856 10858 10860 10862 10863 10865
10798 10793 10787 10782 10778 10772 10767 10762 10757 10752 10744 10737 10732 10729 10727 10724 10720 10715 10711 10710 10708 10705 10701 10696 10690 10685 10680 10675 10671 10667 10664 10660 10657 10654 10652 10650 10647 10646 10644 10644 10646 10648 10650 10652 10655 10659 10663 10667 10670 10673 10678 10686 10696 10704 10711 10718 10725 10733 10741 10750 10758 10765 10774 10782 10787 10793 10799 10805 10811 10817 10820 10824 10827 10831 10834 10837 10840 10844 10848 10850 10852 10854 10857 10859 10861
10791 10786 10781 10776 10771 10765 10760 10754 10749 10744 10738 10731 10726 10723 10720 10717 10713 10708 10704 10702 10699 10696 10692 10688 10682 10676 10670 10665 10660 10655 10650 10648 10645 10642 10640 10637 10635 10634 10633 10633 10633 10636 10639 10641 10644 10648 10652 10656 10659 10662 10667 10674 10683 10692 10700 10707 10714 10722 10730 10740 10748 10756 10766 10776 10780 10785 10792 10797 10803 10809 10813 10817 10821 10825 10829 10832 10835 10839 10843 10845 10847 10849 10852 10855 10857
10785 10779 10774 10769 10764 10758 10753 10748 10742 10736 10731 10726 10721 10716 10713 10709 10705 10701 10696 10693 10690 10686 10682 10677 10672 10667 10661 10655 10651 10646 10641 10638 10635 10632 10629 10627 10624 10623 10623 10623 10623 10625 10627 10630 10633 10636 10641 10645 10648 10652 10656 10663 10671 10680 10689 10696 10704 10712 10720 10730 10739 10748 10759 10769 10773 10777 10783 10788 10795 10801 10806 10811 10817 10820 10823 10826 10830 10834 10837 10839 10842 10845 10848 10850 10852
10778 10772 10767 10763 10758 10751 10746 10741 10734 10728 10723 10719 10714 10710 10705 10702 10697 10692 10688 10684 10680 10676 10671 10666 10661 10655 10650 10645 10641 10636 10632 10629 10625 10622 10620 10617 10614 10613 10613 10614 10614 10615 10617 10620 10622 10626 10630 10634 10638 10642 10646 10652 10660 10668 10677 10685 10695 10703 10711 10720 10729 10739 10750 10760 10764 10767 10772 10780 10788 10794 10799 10806 10812 10815 10818 10820 10824 10828 10831 10834 10837 10840 10843 10845 10847
10770 10765 10761 10756 10751 10744 10738 10733 10727 10721 10715 10711 10707 10702 10697 10693 10688 10683 10678 10673 10669 10665 10660 10655 10649 10644 10639 10634 10630 10626 10623 10620 10616 10613 10610 10608 10606 10605 10605 10606 10606 10607 10608 10610 10613 10616 10619 10624 10628 10632 10636 10642 10649 10656 10665 10675 10684 10693 10700 10709 10718 10728 10740 10748 10751 10756 10764 10775 10783 10788 10793 10800 10806 10809 10811 10813 10817 10822 10825 10829 10833 10836 10838 10840 10843
10762 10756 10752 10747 10742 10736 10730 10725 10719 10713 10707 10702 10698 10694 10689 10685 10680 10674 10669 10664 10659 10654 10650 10645 10640 10635 10630 10624 10620 10617 10614 10611 10608 10605 10602 10600 10599 10598 10598 10598 10599 10599 10600 10601 10604 10607 10609 10613 10617 10621 10625 10631 10637 10644 10653 10664 10674 10682 10689 10698 10707 10718 10729 10737 10743 10751 10762 10773 10779 10783 10787 10793 10799 10802 10803 10805 10811 10816 10819 10823 10827 10830 10833 10835 10838
10754 10748 10742 10737 10732 10727 10721 10715 10709 10704 10698 10693 10690 10686 10682 10676 10671 10666 10661 10655 10650 10645 10641 10636 10631 10626 10621 10616 10611 10608 10606 10603 10601 10598 10595 10593 10592 10591 10591 10591 10591 10592 10592 10594 10596 10598 10601 10604 10607 10610 10614 10619 10626 10634 10644 10655 10665 10672 10680 10689 10699 10710 10721 10730 10739 10749 10759 10766 10771 10775 10779 10785 10792 10795 10795 10798 10805 10810 10813 10817 10821 10824 10827 10830 10833
10745 10739 10733 10727 10722 10718 10712 10706 10701 10697 10690 10685 10682 10679 10674 10668 10662 10657 10652 10647 10641 10636 10631 10627 10623 10618 10614 10609 10604 10601 10598 10596 10594 10591 10588 10587 10586 10585 10585 10585 10585 10585 10586 10587 10589 10591 10594 10596 10598 10601 10604 10611 10618 10626 10637 10648 10656 10663 10673 10684 10693 10702 10713 10724 10734 10742 10750 10756 10761 10767 10772 10778 10784 10788 10789 10793 10800 10804 10807 10811 10815 10819 10822 10825 10827
10735 10729 10723 10717 10713 10708 10702 10697 10693 10689 10682 10677 10673 10670 10665 10659 10653 10648 10643 10637 10631 10625 10621 10617 10613 10610 10606 10601 10597 10594 10591 10589 10587 10585 10583 10582 10581 10580 10580 10579 10580 10580 10581 10582 10583 10585 10587 10588 10591 10594 10598 10604 10611 10619 10630 10640 10646 10656 10668 10677 10683 10692 10705 10717 10725 10732 10739 10747 10754 10761 10766 10770 10775 10780 10784 10789 10795 10799 10801 10805 10809 10813 10817 10820 10822
10724 10717 10711 10707 10703 10698 10691 10686 10682 10678 10673 10669 10666 10662 10657 10652 10646 10640 10634 10629 10622 10616 10611 10608 10604 10601 10598 10594 10590 10587 10584 10582 10581 10579 10578 10577 10577 10576 10576 10575 10576 10576 10577 10578 10578 10579 10580 10582 10585 10588 10592 10598 10604 10612 10622 10631 10639 10650 10660 10666 10672 10685 10699 10709 10717 10725 10735 10742 10747 10753 10759 10762 10767 10773 10779 10784 10789 10792 10795 10799 10804 10807 10811 10814 10817